SCP
6 5 5 5 4 3 2 2 2 1 1 1 1 1 1 1 1 2 2 3 4 5 5 5 5 6 6 5 4 3 3 4 4 4 5 6 7 9 10 11 11 11 11
6 6 5 5 4 3 2 2 2 2 1 1 1 1 1 1 1 1 2 2 3 5 5 5 6 7 7 6 4 3 3 3 4 4 5 6 7 8 10 10 10 10 10
6 6 5 5 4 3 3 2 2 2 2 1 1 1 1 1 1 1 1 1 2 4 5 5 6 8 9 7 5 4 3 3 3 4 5 6 7 8 9 10 10 9 8
7 6 5 4 4 4 4 3 2 2 2 1 1 1 1 1 1 1 1 1 1 2 3 4 5 7 9 8 6 4 4 3 3 4 5 6 7 8 9 9 9 8 7
6 5 5 4 5 5 4 4 3 2 2 1 1 1 1 1 1 1 1 1 1 2 2 3 4 5 7 8 7 6 4 4 4 4 4 5 6 7 7 8 8 7 7
5 5 4 4 5 5 5 4 4 3 2 2 1 1 1 1 1 1 2 2 2 2 2 2 3 3 4 6 7 6 5 5 4 4 4 5 6 6 6 7 7 7 6
4 4 4 4 5 5 4 4 4 3 3 2 2 2 2 1 1 1 2 2 2 2 2 2 2 3 3 3 4 5 5 5 5 5 4 4 5 5 5 6 6 6 5
4 4 4 4 4 4 4 4 5 4 3 2 2 2 2 1 1 1 2 2 2 2 2 2 2 2 3 2 3 3 4 5 5 5 5 4 4 4 4 5 5 5 4
3 3 3 3 4 4 3 4 4 3 3 2 2 2 2 2 1 1 1 1 2 2 2 2 2 2 3 3 3 2 3 3 4 5 5 5 4 3 3 4 4 4 3
2 2 3 3 3 3 3 3 2 2 2 1 1 1 2 2 1 1 1 1 1 1 1 2 2 2 2 3 3 3 2 2 3 4 4 4 4 3 3 3 3 3 3
2 2 2 2 2 3 2 2 2 2 1 1 1 1 1 1 1 1 1 1 1 1 1 2 2 3 3 3 3 3 2 2 2 3 3 4 4 4 3 3 3 3 3
3 3 3 3 3 3 2 2 2 1 1 1 1 1 1 1 1 1 1 1 1 2 2 2 2 3 3 3 3 2 2 2 2 2 2 2 3 4 4 4 3 3 3
3 3 3 3 3 3 3 2 2 2 2 2 2 1 1 1 1 1 1 1 1 2 2 2 2 2 3 3 3 2 2 1 1 1 1 2 2 3 3 4 3 3 3
3 3 3 3 3 3 3 3 2 2 2 2 2 2 2 2 2 2 2 2 1 2 2 2 2 2 2 2 2 2 2 2 1 1 1 1 1 2 3 3 3 2 2
4 4 4 3 3 3 3 4 3 3 3 3 3 3 3 3 3 3 3 2 2 2 2 2 2 2 2 2 2 2 2 2 1 1 0 1 1 1 1 2 2 2 2
4 4 4 4 3 3 4 4 4 3 3 3 2 3 3 3 3 3 3 2 2 2 1 1 2 2 2 1 1 1 2 2 1 0 0 0 0 1 1 1 1 1 1
4 5 5 4 3 3 3 4 4 3 3 3 2 2 2 2 2 2 2 2 2 2 1 1 2 2 2 2 1 1 1 1 1 1 0 0 0 0 0 0 0 0 0
5 5 4 3 2 2 2 3 2 2 2 2 2 2 2 2 2 2 2 2 1 1 1 1 1 2 2 2 2 1 1 1 1 1 0 0 0 0 0 0 0 0 0
4 4 3 3 2 2 1 1 1 1 2 2 2 2 2 2 2 2 1 2 1 1 1 1 1 1 2 2 2 2 1 1 1 1 0 0 0 0 0 0 0 0 0
4 3 3 2 2 1 1 1 1 1 1 1 1 1 2 2 2 2 1 1 1 2 2 1 1 1 1 1 2 2 1 1 1 1 1 1 0 0 0 0 0 0 0
3 3 2 2 1 1 1 1 1 1 1 1 1 1 1 2 2 1 1 1 1 1 2 1 1 1 1 1 1 1 1 1 1 1 1 1 1 0 0 0 0 0 0
3 3 2 2 1 1 0 0 0 0 1 1 1 1 1 1 1 1 1 0 0 1 1 1 1 1 1 1 1 1 1 1 1 1 1 1 1 0 0 0 0 0 0
3 3 3 2 1 1 0 0 0 0 0 1 1 1 0 0 1 1 1 1 1 0 0 1 1 1 1 1 1 1 1 1 1 1 1 1 1 0 0 0 0 0 0
3 3 3 2 2 1 0 0 0 0 0 1 1 1 0 0 0 0 1 1 1 1 0 1 1 1 1 1 1 1 1 1 1 1 1 1 1 0 0 0 0 0 0
3 3 3 2 2 1 0 0 0 0 0 1 1 1 0 0 0 0 1 1 1 1 0 0 1 0 0 0 0 1 1 1 1 1 1 1 1 0 0 0 0 0 0
3 3 3 2 2 1 0 0 0 0 0 1 1 1 0 0 0 0 0 1 1 1 0 0 0 0 0 0 0 0 1 1 1 1 1 1 1 0 0 0 0 0 0
Wind_Speed
2 1 1 1 2 2 2 2 3 2 3 3 4 5 4 4 4 2 2 7 8 8 8 9 9 10 10 10 11 10 10 10 10 10 10 10 9 9 9 9 9 9 10
1 1 2 1 2 2 1 2 2 2 2 3 4 4 4 4 4 3 3 4 8 9 10 10 10 11 11 11 10 10 10 10 10 10 10 10 10 9 9 9 9 9 9
1 1 2 2 2 1 1 1 2 2 3 3 3 3 3 3 3 3 3 3 4 8 10 10 10 10 10 10 10 10 10 11 10 10 10 9 10 10 10 9 9 10 10
1 1 2 2 2 2 1 2 1 2 2 2 2 3 2 2 3 4 4 4 3 4 7 10 10 10 10 10 10 10 10 11 11 10 10 9 9 10 10 10 10 10 10
2 1 1 1 2 1 1 2 1 1 2 2 3 3 2 3 3 4 4 4 4 3 3 7 10 11 10 11 11 11 10 10 10 10 10 10 10 10 10 11 11 10 11
1 1 1 1 1 1 1 1 1 2 2 2 4 3 3 3 2 3 3 4 3 4 5 4 5 6 10 10 10 11 11 10 10 11 11 11 10 10 10 11 11 11 11
1 1 1 1 1 1 1 1 1 2 2 2 2 3 3 4 4 3 2 3 3 3 3 4 3 3 4 9 10 10 10 11 10 10 11 11 10 10 10 10 10 11 11
1 2 1 1 1 1 1 1 2 2 3 2 2 3 3 3 2 3 2 2 3 2 3 4 4 4 4 3 5 8 8 9 9 9 10 11 10 10 10 11 11 11 11
1 1 1 1 1 1 1 2 2 2 3 3 2 2 2 2 2 2 2 3 3 3 3 3 4 4 5 4 4 7 9 8 8 9 8 8 9 9 9 10 11 11 11
1 1 0 0 1 1 1 2 1 2 3 4 3 2 3 2 2 2 2 2 3 3 3 3 3 2 3 3 4 6 8 8 7 8 8 9 9 10 10 10 10 10 11
1 0 0 0 1 1 1 2 2 3 2 4 3 3 4 3 4 3 4 3 3 3 3 3 3 3 3 3 3 6 9 9 8 8 7 7 9 9 10 10 10 10 11
0 1 0 0 1 1 2 2 2 3 3 3 4 3 3 3 3 3 3 4 3 3 3 3 3 3 3 3 5 7 8 10 10 9 8 7 8 8 9 10 11 11 11
1 1 1 1 1 1 2 1 2 2 3 3 3 3 3 4 3 3 3 4 4 3 3 3 3 2 3 3 4 8 8 9 9 9 8 7 8 8 9 9 10 11 11
0 0 0 1 1 1 1 1 1 2 2 3 4 4 3 3 3 3 3 3 4 4 3 4 2 2 2 2 4 7 5 10 10 10 9 8 9 9 10 10 10 10 9
0 0 1 1 0 0 1 1 1 2 2 2 3 3 3 3 3 3 3 3 3 4 4 3 2 2 2 2 3 4 4 8 10 10 10 9 9 9 10 10 10 10 9
1 1 1 1 1 1 1 1 2 2 2 2 2 2 3 3 3 3 3 3 3 3 4 3 3 2 2 3 4 3 4 6 9 9 10 10 10 9 9 10 10 9 9
1 1 1 1 1 1 1 1 2 2 2 3 3 3 3 3 3 3 2 2 2 2 3 4 2 2 3 3 3 3 4 4 5 9 10 11 11 11 10 9 9 9 9
1 1 1 1 2 2 1 2 3 2 2 2 3 3 4 3 3 3 2 2 2 2 3 4 4 3 3 3 3 4 3 3 3 6 9 10 10 11 11 10 10 9 9
1 1 1 1 2 2 2 3 3 3 3 2 2 2 3 3 4 3 3 3 2 3 2 3 4 2 2 2 2 2 2 2 3 4 6 7 9 10 10 10 10 10 9
1 1 1 1 1 2 2 3 3 3 3 3 2 2 2 2 3 4 3 3 3 3 3 3 3 2 2 2 1 1 1 1 1 2 2 3 5 7 9 10 11 10 10
1 1 1 1 1 1 3 4 4 4 3 3 3 3 2 2 3 3 3 3 3 2 2 3 3 2 2 2 1 1 1 1 2 1 1 2 2 3 5 8 9 10 11
1 1 1 1 1 2 3 4 4 4 4 4 4 4 3 2 3 3 4 3 3 3 3 2 3 2 2 2 2 2 2 2 2 1 1 2 2 2 3 4 8 11 12
1 1 1 1 1 1 2 3 4 3 3 3 3 4 5 4 4 4 3 3 3 4 4 3 3 4 3 3 2 2 3 3 3 3 2 3 3 3 4 4 8 11 12
1 1 1 1 1 1 1 2 4 3 3 3 3 3 3 3 5 5 4 4 3 2 2 2 2 3 4 3 2 3 3 3 3 3 2 3 3 3 4 3 7 10 11
2 1 1 1 1 1 1 2 3 3 2 3 2 2 2 2 3 4 3 4 4 3 3 3 4 4 5 5 4 2 3 3 3 3 2 2 3 3 3 3 4 9 10
2 2 2 1 1 1 2 0 2 2 3 3 2 1 2 2 2 3 3 3 4 4 4 4 4 4 4 4 4 3 3 3 3 3 3 2 2 2 3 2 2 3 5
Wind_Direction
226 223 235 218 236 233 228 236 251 247 247 257 257 259 262 265 264 252 203 209 216 217 228 232 230 229 230 229 226 223 222 222 220 216 213 210 208 208 208 208 210 208 206
224 253 250 232 252 250 255 258 270 263 252 259 263 262 255 257 254 238 228 215 217 222 226 232 230 230 230 230 227 222 219 220 219 216 213 209 208 209 208 206 209 209 208
227 253 276 253 259 257 244 257 268 272 261 261 259 259 255 255 261 248 234 226 221 223 224 226 226 227 228 227 225 224 221 218 217 214 213 213 212 211 210 209 211 211 211
206 234 268 266 271 273 262 257 257 278 278 278 276 269 264 258 253 253 241 231 230 234 224 223 222 222 224 225 226 225 223 220 219 216 215 215 215 213 212 212 213 214 213
206 209 246 253 273 274 269 277 302 286 292 289 278 262 256 254 247 252 247 240 228 228 225 217 219 220 219 221 223 225 223 219 216 214 217 218 218 215 214 215 215 215 214
222 224 230 224 265 278 287 300 307 285 284 282 284 288 274 259 252 253 255 256 231 219 227 220 209 219 219 219 221 224 224 223 219 218 220 222 221 218 217 217 215 213 212
233 239 288 234 257 270 274 301 293 284 269 266 277 282 268 247 238 233 241 256 252 237 222 207 200 201 204 215 219 219 223 224 223 224 226 226 225 223 221 218 214 212 210
211 223 244 248 245 273 277 287 280 289 287 282 280 287 282 271 263 245 216 226 250 247 242 232 208 200 196 191 203 213 220 223 224 227 230 227 225 223 223 221 216 213 211
196 237 212 232 266 267 269 269 267 267 280 279 259 267 288 290 303 265 246 239 236 236 242 250 230 213 201 189 193 208 211 214 220 223 228 228 226 225 223 222 220 218 215
192 169 191 188 261 281 296 279 287 285 279 281 279 256 253 271 275 289 272 255 255 254 255 260 256 241 216 190 192 190 194 199 211 219 224 228 228 227 226 225 222 220 219
209 123 147 169 268 283 293 301 314 300 289 290 291 289 281 269 251 255 277 283 272 249 236 238 233 232 229 209 193 193 190 190 196 206 216 228 232 231 229 228 225 223 222
125 36 347 267 253 273 279 277 282 294 298 298 295 291 287 288 283 272 269 275 268 263 243 240 238 227 223 210 207 201 192 191 194 205 213 223 228 232 232 230 228 227 228
80 31 344 300 273 254 256 264 283 285 290 293 289 287 288 286 284 281 279 280 281 274 260 248 237 236 235 198 197 196 199 196 197 203 211 220 229 233 236 235 232 229 228
92 155 245 265 263 268 286 297 286 289 299 298 295 293 286 285 289 284 275 279 283 281 270 264 255 242 251 217 197 200 203 196 200 202 206 216 226 230 232 234 234 230 226
297 359 271 275 319 314 302 285 287 295 300 292 291 292 289 288 290 285 276 264 262 276 277 268 266 254 246 221 197 210 203 198 201 204 206 213 219 223 226 227 228 224 221
336 326 335 331 329 309 300 293 299 301 298 291 281 288 297 299 302 293 285 269 255 258 271 275 265 261 277 266 226 225 224 212 211 206 208 213 217 217 220 220 219 218 217
332 340 324 302 281 287 318 315 301 304 307 308 309 315 308 305 310 306 295 285 271 261 270 282 282 271 260 256 244 229 226 215 212 205 209 212 214 211 213 214 213 213 214
307 315 311 306 304 320 329 313 313 317 307 313 319 326 323 320 318 308 303 298 286 275 268 280 282 269 256 251 239 229 243 238 216 212 211 210 210 210 209 209 210 212 212
357 325 313 309 319 339 333 317 309 306 303 304 315 324 328 336 334 325 313 307 301 300 292 286 285 289 280 265 250 260 261 264 239 225 213 211 212 214 211 209 211 213 213
350 343 338 328 327 347 340 323 318 315 311 304 303 308 332 355 345 330 324 324 318 315 316 308 290 295 298 298 279 272 308 296 274 255 247 227 222 218 216 214 214 213 212
324 344 334 331 332 335 339 345 333 324 326 328 336 328 347 2 353 335 330 334 327 320 319 316 304 314 322 327 317 304 309 294 285 262 256 250 228 220 219 224 222 217 213
332 339 327 317 324 345 4 6 352 328 327 339 342 335 324 338 329 306 301 302 303 293 300 306 313 318 313 312 314 307 308 296 288 259 249 275 249 238 231 221 216 214 213
306 297 299 318 6 19 356 355 344 320 322 330 329 324 322 341 343 330 320 302 289 278 261 269 300 303 302 301 298 295 289 284 274 266 245 264 251 252 243 233 209 209 212
276 278 285 307 314 343 7 355 339 307 300 300 303 304 313 331 338 339 333 334 331 337 286 263 277 290 296 297 281 274 273 277 276 267 239 262 261 251 253 231 216 210 211
276 271 269 265 284 8 71 356 328 297 293 294 290 310 327 335 352 339 328 323 323 319 307 285 266 272 283 287 284 285 281 278 281 279 262 253 263 267 258 242 222 214 215
264 273 269 249 239 188 164 306 315 302 309 310 310 329 350 331 334 325 309 306 304 301 307 308 298 286 279 277 270 248 260 271 275 284 282 263 261 276 278 250 218 199 208